User: anonymous   Login
Location: Unspecified
(0.0000°N, 0.0000°E)
Time: 00:17:43
(UTC+00:00)
Language:

UHF F/O F3 - Orbit

View from above orbital plane
View from above orbital plane
View from above satellite
View from above satellite

Ground track
Ground track

The orbit data is extracted from the following two-line orbital elements,

1 23132U 94035A   17321.28436163 0.00000000  00000-0  00000-0 0    02
2 23132  10.9721  25.3081 0003331 285.5343  74.4410  1.00163293    07
Epoch (UTC): 17 November 2017 06:49:28
Eccentricity: 0.0003331
inclination: 10.9721°
perigee height: 35802 km
apogee height: 35831 km
right ascension of ascending node: 25.3081°
argument of perigee: 285.5343°
revolutions per day: 1.00163293
mean anomaly at epoch: 74.4410°
orbit number at epoch: 0

The dashed part of the orbit path shows where the satellite is in the earth's shadow,  

DLR